Regional Weather Roundup
Issued by NWS Charleston, SC

Home | Current Version | Previous Version | Text Only | Print | Product List | Glossary On
Versions: 1 2 3 4 5 6 7 8 9 10 11 12 13 14 15 16 17 18 19 20 21 22 23 24 25 26 27 28 29 30 31 32 33 34 35 36 37 38 39 40 41 42 43 44 45 46 47 48 49 50
000
ASUS42 KCHS 280210
RWRCHS
REGIONAL WEATHER ROUNDUP
NATIONAL WEATHER SERVICE CHARLESTON SC
1000 PM EDT WED AUG 27 2014

NOTE: "FAIR" INDICATES FEW OR NO CLOUDS BELOW 12,000 FEET WITH NO
SIGNIFICANT WEATHER AND/OR OBSTRUCTIONS TO VISIBILITY.

NOT ALL STATIONS ARE QUALITY CONTROLLED BY THE NATIONAL
WEATHER SERVICE. USE DATA WITH CAUTION...ESPECIALLY
DEWPOINT OBSERVATIONS.

SCZ027-030-031-034>040-042>050-280300-
...SOUTH CAROLINA...

CITY           SKY/WX    TMP DP  RH WIND       PRES   REMARKS
N CHARLESTON   CLEAR     74  61  63 S5        30.00S
WATERFRONT PRK   N/A     81 N/A N/A S7          N/A
FORT JOHNSON   NOT AVBL
MOUNT PLEASANT FAIR      73  70  88 CALM      30.00S
JOHNS ISLAND   CLEAR     73  70  88 CALM      30.01R
PINOPOLIS        N/A     79  59  50 CALM      29.90F
MONCKS CORNER    N/A     70  68  94 CALM      30.00R
SUMMERVILLE    FAIR      70  68  94 CALM      30.01R
BEAUFORT MCAS  CLEAR     76  66  71 CALM      30.00R
BEAUFORT ARPT  FAIR      75  70  83 S5        30.00R
HILTON HEAD IS CLOUDY    73  68  83 CALM      30.02R
GEORGETOWN     NOT AVBL
WALTERBORO     CLEAR     72  63  73 CALM      30.01R
ORANGEBURG     CLEAR     70  60  70 CALM      30.00R
BARNWELL       FAIR      72  57  60 CALM      30.01R
AIKEN          FAIR      72  59  64 CALM      30.05R
MANNING        FAIR      70  70 100 CALM      30.00R
KINGSTREE      NOT AVBL
COLUMBIA       CLEAR     74  61  63 S3        30.00R
SUMTER         CLEAR     71  63  76 NE2       29.99R
FLORENCE       CLEAR     70  59  68 CALM      29.99R
MYRTLE BEACH   CLEAR     75  66  73 CALM      29.98S
N MYRTLE BEACH NOT AVBL

$$

GAZ063-065-086>088-099>101-113>116-118-119-134-136>141-150-280300-
...GEORGIA...

CITY           SKY/WX    TMP DP  RH WIND       PRES   REMARKS
SAVANNAH ARPT  CLEAR     76  64  66 S5        30.02R
HUNTER AAF     CLEAR     76  66  69 S3        30.00R
FORT STEWART   CLEAR     74  64  71 CALM      30.01R
STATESBORO     NOT AVBL
SYLVANIA       CLEAR     71  66  84 CALM      30.01S
CLAXTON        NOT AVBL
THOMSON        CLEAR     70  67  90 CALM      30.07R
AUGUSTA-BUSH   CLEAR     69  60  73 CALM      30.00R
AUGUSTA-DANIEL CLEAR     84  53  34 NE7       30.02R
SWAINSBORO     FAIR      72  63  73 CALM      30.02R
VIDALIA          N/A     73  63  68 CALM      30.02R
ALMA           CLEAR     75  61  61 SE6       30.01R
WAYCROSS       CLEAR     80  69  68 SE7       30.02R
JESUP            N/A     75  68  78 CALM      30.02R
BRUNSWICK      CLEAR     70  64  83 CALM      30.03R
SAINT SIMONS   CLEAR     78  64  61 E6        30.02R

$$

SCZ027-028-034-036>038-045-046-048>050-GAZ119-141-280300-
...LAKE AND SUPPLEMENTAL COASTAL OBSERVATIONS...

STATION/POSITION TIME  TEMP    WIND        PRES    WAVE   SWELL
                       AIR SEA DIR/SP/G            HT/PER HT/PER/DIR
                 (UTC) (F)     (DEG/KT/KT) (MB)    (FT/S) (FT/S/D)
UPR LAKE MARION  NOT AVBL
WINYAH BAY       NOT AVBL
LAKE MURRAY      0100   80     340/  1/  4 1015.2R
ACE BASIN NERRS  NOT AVBL
FORT PULASKI     0200   79     140/  3/  5 1016.3R
SAPELO ISLAND    NOT AVBL

$$

ANZ835-935-AMZ111-154-330-350-352-354-374-450-454-472-280300-
...C-MAN AND BUOY OBSERVATIONS...

STATION/POSITION TIME  TEMP    WIND        PRES    WAVE   SWELL
                       AIR SEA DIR/SP/G            HT/PER HT/PER/DIR
                 (UTC) (F)     (DEG/KT/KT) (MB)    (FT/S) (FT/S/D)
FOLLY BEACH CMAN 0100   80     210/  6/  7 1016.3R
BUOY 41004       0200   81 82  220/  2/  4 1015.4R   6/11   5/11
BUOY 41008       0200   81 84   80/  8/ 10 1016.1R   4/11   3/100/11
5E ST. MARYS GA  0200      83                N/A     4/10   2/ 90/11
FRYING PAN BUOY  NOT AVBL
BUOY 41025       0200   75     340/ 17/ 23 1012.4R  10/13   8/140/13
CAPE LOOKOUT NC  0100   79      10/  7/  9 1013.7R
BUOY 41002       0111   81 81  330/ 14/ 16 1013.3R   9/ 9   8/ 50/ 9
BUOY 41010       0200   82 84   20/  4/  6 1015.9R   9/10   8/ 50/10
BUOY 41012       NOT AVBL
ST AUGUSTINE FL  0200   80      70/ 11/ 12 1017.1R
CAPERS NEARSHORE 0100   80     250/  6/  8   N/A
FRIPP NEARSHORE  NOT AVBL


$$


USA.gov is the U.S. government's official web portal to all federal, state and local government web resources and services.